THOR BURNER 2 R/B, 3271

Orbit data source: Space-Track

THOR BURNER 2 R/B, 3271 is space debris in SSO originally from a launch on Thu, 23 May 1968 UTC launched from the Air Force Western Test Range (AFWTR). Debris objects in space refer to the collection of defunct objects orbiting the Earth. Examples of debris include non-operational satellites, rocket bodies, and fragments generated from explosions, collisions, or faulty payload assembly.

Loading next visibility...
Identifier
3271, 1968-042B
Orbit
SSO
Country
Flag of USUS
Related business
Manufacturer
Thiokol/TE
Mission
Spacecraft
Bus & Motor
STAR 37, Unknown motor
Mass
154 kg wet, 154 kg dry
Launch date (UTC)
1968-05-23 (58 years ago)
Launch vehicle
Unknown
Launch site
Air Force Western Test Range (AFWTR)
Object type
Payload
Rocket body
Debris
Shape & HBR
Unknown
Radar Cross Section
Large (>1 m²)

Expand to show TLE details & history
Last TLE update: 8 hours ago

TLE from 8 hours ago
0 THOR BURNER 2 R/B
1 03271U 68042B   26110.47579377  .00000042  00000-0  41071-4 0  9995
2 03271  98.5690 286.7893 0051385 357.8747   2.2203 14.17613300988648
Epoch: 2026-04-20T11:25Z
TLE epoch observation values (Epoch: 2026-04-20T11:25:08.581Z)
Latitude
Longitude
-93.06184°
Altitude
799.316 km
Speed
7.473 km/s
True Right ascension
19h 07m 09s
True Declination
0° 00' 00"
Sunlit
Object was in daylight at epoch
Visualization orbit readout
Latitude
Unknown
Longitude
Unknown
Altitude
Unknown
Speed
Unknown
Apparent Right ascension
Unknown
Apparent Declination
Unknown
Sunlit
N/A
Visualization observer readout
Local Sidereal Time
02:06:14
Azimuth
Unknown
Elevation
Unknown
Doppler factor
Unknown
Orbital elements
Apogee altitude
867.633 km
Perigee altitude
793.549 km
Semi-major axis
7,208.728 km
Eccentricity
0.00514
Inclination
98.569°
RAAN
286.7893°
Arg. of periapsis
357.8747°
True anomaly
2.24326°
Mean anomaly
2.2203°
Eccentric anomaly
2.23177°
Mean motion
3.54613 °/min
Orbital period
101.52 mins
BSTAR
0.000041071
Loading maneuver chart data...
Computing Atmospheric mass density...
Loading historical data...
Loading historical data...
Loading historical data...
Loading historical data...
Loading historical data...
Loading historical data...
Loading historical data...
Other satellites on launch #42 in the year 1968 (1968-05-23 UTC)

Documentation

Showing up to 5 results
|